 HI HI AE 07 88 51 09 E9 FF 0D    16 8E 65 74 60 95 91 B0 87 B8 B6 B7 B7 B3
 HI HI AE C7 88 51 0E E9 FF 0D 90 16 74    71 4E 94 91 B0 70 B8 B6 B7 B7 B3
 HI HI AE C7 88 51 19 E7 FF 0D 5B 82 48 74 60 93 94 91 B0    B7 B6 B7 B7 B3 
 HI HI AE 07 88 51 03 E9 FF 0D A6 60 36 89 60 93 94 91 B1 74 B7 B5 B7 B7 B3

  AS13495C1  13May99
  JST  14:30 - 14:39



 HI HI AE C7 88 55 OA 95 3D 36 09 16 5  EE 68 55 94 91 9F 89 B6 B5 B6 B6 B2 
 HI HI AE C7 87 55 09 94 3D 36 09 16 89 51 7C 60 94 91 B0 6E B6 B5 B6 B6 B3 
 HI HI AE C7 88 55 00 95 59 36 09 16 52 7C 80 60 93 90 B0 87 B6 B4 B6 B6 B2 
 HI HI AE 07 84 55 02 9C FF 0D 09 16 5E EE 79 60 93 90 B0 92 8F B0 73 B6 B3  
 HI HI AE C7 88 55 0D 08 16 A6 09 16 EA 6E 7E 60 93 90 B0 76 B6 B4 B6 B6 B3 
 HI HI AE C7 88 55 10 9F FF 0D 09 16 62 47 75 60 93 90 B0 8A B6 B4 B6 B6 B3 
 HI HI AE C7 88 55 16 A3 SF 0D 00 16 77 4B 82 60 94 91 B0 6F B6 B4 B5 B6 B3 
 HI HI AE C7 88 55 1B A3 FF 0D 00 16 3F 5B 78 5F 93 8F B0 68 B6 B4 B5 B6 B3 
 HI HI AE 07 88 55 00 A9 FF 0D 00 16 73 41 7B 60 93 90 B0 8C B6 B4 B5 B6 B3 
 HI HI AE C7 88 51 05 A9 1E 25 00 16 69 41 86 60 92 90 B0 7A B6 B4 B5 B6 B3 
 HI HI AE C7 88 51 0A A9 FF 0D 00 16 3F 54 7E 60 94 91 B0 6D B6 B3 B5 B6 B3 
 HI HI AE C7 88 51 0F A9 FF 0D 00 16 82 43 7E 5F 93 90 B0 84 B6 B3 B5 B6 B3 
 HI HI AE C7 88 55 14 AA 05 0D 00 16 58 3A 82 60 92 8F B0 8D B6 B3 B5 B6 B3 
 HI HI AE C7 88 51 1A AB FF 0D 00 16 4F 57 7C 60 92 8F B0 86 B6 B3 B5 B5 B3 
 HI HI AE C7 88 51 1F AC FF 0D 00 16 91 42 82 60 92 90 B0 70 B5 B3 B5 B5 B3 
 HI HI AE C7 88 51 95 

  AS13483C1  11May99
  JST  16:13 - 16:29

 HI HI AE C7 88 55 09 ED 69 44 09 30  B 44 87 60 93 90 B0 6A B6 B4 B6 B6 B2
 HI HI AE C7 88 55 00 EC    44 09 30 3D 35 76 4A 96 94 B0 6E B6 B4 B6 B6 B3 
 HI HI AE C7 88 55 00 EC ED 44 09 30 7E 35 8B 5F 92 90 B0 8E B6 B4 B6 B6 B3 
 HI HI AE C7 88 55 00 EC DF 44 09 30 62 5B 8D 60 93 90 B0 51 B6 B4 B5 B6 B3 
 HI HI AE C7 88 55 00 EC A3 45 09 34 40 51 79 60 93 90 B0 81 B6 B3 B5 D6 B3 
 HI HI AE C7 88 55 00 EC A3 45 09 34 81 33 89 60 93 90 B0    B5 B3 B5 B5 B2
 HI HI AE C7 88 55 OE EE A3 46 09 4C A8 43 7A 60 93 8F B0 47 B6 B3 B5 B6 B3 
 HI HI AE C7 88 55 09 EC 40 46 09 4C 54 44 84 60 92 8F B0 88 B5 B3 B5 B5 B3 
 HI HI AE C7 88 55 09 EC 8C 46 09 2C 7E 37 8A 5F 92 8F B0 75 B5 B3 B5 B5 B2 
 HI HI AE C7 88 55 00 EC 64 46 09 20 83 53 7D 5F 92 8F B0 B5 B5 B3 B4 B5 B3 
 HI HI AE C7 88 55 00 EC 64 46 09 20 86 3F 88 5F 92 8F B0 9E B5 B2 B4 B5 B3 
 HI HI AE C7 88 55 00 EC CC 45 09 64          60 93 90 B0 90 B5 B2 B4 B5 B3
 HI HI AE C7 88 55 00 EC CC 45 09 68 49 5C 7D 60 92 90 B0 60 B5 B2 B4 B5 B3 
 HI HI AE C7 88 55 00 EC F7 44 09 68 9E 
 
  AS13481C1  11May99
  JST 12:44 - 12:57
                                     84 5H 62 60 92 90 9D 84 B6 B5 B6 B5 B2 
 HI HI AE C7 88 55 00 22 6F 46 09 54 4D 52 75 60 92 8F AE 7B B6 B4 B6 B5 B2 
 HI HI AE C7 88 55 00 22 6F 46 09 53 8B 7B 6E 5E 92 8F A0 59 B5 B5 B6 B5 B2 
 HI HI AE C7 88 55 00 22 16 47 09 53 67 44 7C 4B 94 91 9F 85 B6 B5 B6 B5 B2 
 HI HI AE C7 88 55 00 22 93 47 09 72 61 5D 79 5F 92 90 9F 95 B6 B4 B6 B5 B2 
 HI HI AE C7 88 55 00 22 93 47 09 72 93 62 7A 5F 92 8F 9E 70 B5 B4 B5 B5 B2 
 HI HI AE C7 88 55 00 22 E5 47 09 7D 54 40 7B 60 93 8F B0 6E B6 B4 B5 B5 B2 
 HI HI AE 07 88 55 00 22 E5 47 09 69 7F 5B 7F 60 93 90 B0 7F B6 B4 B5 B5 B3 
 HI HI AE C7 88 55 00 22 FC 47 09 69 80 4F 7E 5F 92 91 9F AC B5 B4 B5 B5 B2 
 HI HI AE C7 88 55 00 22 C6 47 09 64 51 40 89 60 93 90 B0 69 B5 B4 B5 B5 B3 
 HI HI AE C7 88 55 00 22 C6 47 09 64 93 52 86 5F 92 8F B0 7F B5 B4 B5 B5 B2 
 HI HI AE C7 88 55 00 22 3F 47 09 60 63 4B 80 5F 92 8F B0 7B B5 B4 B5 B5 B3 
 HI HI AE C7 88 55 00 22 3F 47 09 24 5F 3C 8C 5F 92 8F B0 94 B5 B3 B5 B5 B2 
 HI HI AE C7 88 55 00 32 3F 46 09 24 95 53 82 5F 92 8F B0 73 B5 B3 B5 B5 B2 
 HI HI AE C7 88 55 00 22 AA 45 09 29 40 4B 8C 60 92 90 B0 81 B5 B3 B5 B4 B2 
 HI HI AE C7 88 55 00 22 AA 45 09 29 81 36 89 5F 92 8F B0 70 B5 B3 B4 B4 B3 
 HI HI AE C7 88 55 00 22 E9 44 09 3E 79 40 7E 60 93 90 B0 60 B5 B3 B4 B5 B2 
 HI HI AE C7 88 55 00 22 45 44 09 37 38 47 8B 60 93 90 B0 72 B5 B3 B4 B4 B3 
 HI HI AE C7 88 55 00 22 45 44 09 37 9B 3B 88 60 93 90 B0 63 B5 B3 B4 B4 B3 
 HI HI AE C7 88 55 00 22 45 44 09 36 9E 7B 7B 60 93 90 B9 93 B4 B3 B4 B4 B3 
 HI HI AE C7 88 55 00 22 C8 43 09 36 
  
  AS13418C1  11May99
  JST 12:44 - 12:57
                                     84 5H 62 60 92 90 9D 84 B6 B5 B6 B5 B2 
 HI HI AE C7 88 55 00 22 6F 46 09 54 4D 52 75 60 92 8F AE 7B B6 B4 B6 B5 B2 
 HI HI AE C7 88 55 00 22 6F 46 09 53 8B 7B 6E 5E 92 8F A0 59 B5 B5 B6 B5 B2 
 HI HI AE C7 88 55 00 22 16 47 09 53 67 44 7C 4B 94 91 9F 85 B6 B5 B6 B5 B2 
 HI HI AE C7 88 55 00 22 93 47 09 72 61 5D 79 5F 92 90 9F 95 B6 B4 B6 B5 B2 
 HI HI AE C7 88 55 00 22 93 47 09 72 93 62 7A 5F 92 8F 9E 70 B5 B4 B5 B5 B2 
 HI HI AE C7 88 55 00 22 E5 47 09 7D 54 40 7B 60 93 8F B0 6E B6 B4 B5 B5 B2 
 HI HI AE 07 88 55 00 22 E5 47 09 69 7F 5B 7F 60 93 90 B0 7F B6 B4 B5 B5 B3 
 HI HI AE C7 88 55 00 22 FC 47 09 69 80 4F 7E 5F 92 91 9F AC B5 B4 B5 B5 B2 
 HI HI AE C7 88 55 00 22 C6 47 09 64 51 40 89 60 93 90 B0 69 B5 B4 B5 B5 B3 
 HI HI AE C7 88 55 00 22 C6 47 09 64 93 52 86 5F 92 8F B0 7F B5 B4 B5 B5 B2 
 HI HI AE C7 88 55 00 22 3F 47 09 60 63 4B 80 5F 92 8F B0 7B B5 B4 B5 B5 B3 
 HI HI AE C7 88 55 00 22 3F 47 09 24 5F 3C 8C 5F 92 8F B0 94 B5 B3 B5 B5 B2 
 HI HI AE C7 88 55 00 32 3F 46 09 24 95 53 82 5F 92 8F B0 73 B5 B3 B5 B5 B2 
 HI HI AE C7 88 55 00 22 AA 45 09 29 40 4B 8C 60 92 90 B0 81 B5 B3 B5 B4 B2 
 HI HI AE C7 88 55 00 22 AA 45 09 29 81 36 89 5F 92 8F B0 70 B5 B3 B4 B4 B3 
 HI HI AE C7 88 55 00 22 E9 44 09 3E 79 40 7E 60 93 90 B0 60 B5 B3 B4 B5 B2 
 HI HI AE C7 88 55 00 22 45 44 09 37 38 47 8B 60 93 90 B0 72 B5 B3 B4 B4 B3 
 HI HI AE C7 88 55 00 22 45 44 09 37 9B 3B 88 60 93 90 B0 63 B5 B3 B4 B4 B3 
 HI HI AE C7 88 55 00 22 45 44 09 36 9E 7B 7B 60 93 90 B9 93 B4 B3 B4 B4 B3 
 HI HI AE C7 88 55 00 22 C8 43 09 36 

   
 3)  JDアナログテレメトリの 5月20日(木)の
    AS13604P   20May99
    JST 15:01 - 15:20 のパスの最初のブロック換算値例.

  テレメトリ        内   容	              換算値  単 位
 F1ー12	磁気センサーX軸	=	   0.0	nT
 F1ー13	磁気センサーZ軸	=      38725.5	nT
 F0ー15	太陽電池発生電流	=	1156.9	mA
 F0ー16	B充放電電流	        =	 471.2	mA
 F0ー17	B端子電圧              =	  16.0	V
 F0ー18	B中間端子電圧	        =	   7.0	V
 F0ー19	バス電圧	        = 	  15.6	V
 F0ー20	+5安定化電圧	        =	   5.1	V
 F0ー21	ー5V安定化電圧	        =	  -4.9	V
 F0ー22	+10V安定化電圧	=	  10.1	V
 F0ー23	JTA出力電力	        =	 -91.6	mW
 F0ー24	JTD出力電力	        =	1061.1	mW
 F0ー25	Bセル温度	        =	  12.0	℃
 F0ー26	構体温度ー1	        =	  10.4	℃
 F0ー27	構体温度ー2	        =	  10.0	℃
 F0ー28	構体温度ー3	        =	  11.2	℃
 F0ー29	構体温度ー4	        =	  10.8	℃
 F1ー18	太陽電池パネル温度ー1	=	  -9.3	℃
 F1ー19	太陽電池パネル温度ー2	=	   4.3	℃
 F1ー24	太陽電池パネル温度ー3	=	  11.1	℃
 F1ー23	JTD  Tr温度	=	  15.1	℃

 *計算処理は OFFICE 97 を使用.

==============================================================================
  4)FO−20(ふじ2号)のCWテレメトリは5月10日(月)18:27(JST)の
     パスではテレメトリーが単一トーンの連続音から唸りを伴った連続音、さらにゆらぎの
     ある信号になり、いままでより若干信号が弱くなっていました.
---------------------------------------------------------------------------

 ■ 軌道要素1 :出典は「ふじ3号」に同じ. 
  
  FO-20
  1 20480U 90013C   99125.14272641 -.00000030  00000-0  12693-4 0  1384
  2 20480  99.0292 328.0560 0539810 262.1033  91.8494 12.83251491432813
 
 ■ 軌道要素2 :出典は「ふじ3号」に同じ.  
               
  Satellite: FO-20
  Catalog number: 20480
  Epoch time:      99125.14272641
  Element set:     138
  Inclination:       99.0292 deg
  RA of node:       328.0560 deg
  Eccentricity:    0.0539810
  Arg of perigee:   262.1033 deg
  Mean anomaly:      91.8494 deg
  Mean motion:   12.83251491 rev/day
  Decay rate:       -3.0e-07 rev/day^2
  Epoch rev:           43281
  Checksum:              283

  ====================    FO-20のQSOの状況 ==========================
   
  久しぶりにFO−20のCWによるQRVの状況がJA6BX局江崎さんが
 [jamsat:bb−4339]に投稿されてましたので転載させて頂きます.

   今日 19:10(JST) に 当局の LOS 直前でしたが、JA0SUQ/JD1 斉藤さんが南鳥島
 から FO-20 に CW で QRV されていました。 

          Yoshio Esaki
          esaki@m2.people.or.jp
          ja6bx@jamsat.or.jp 
          ja6bx@amsat.org

  =====================================================================

 5)JARL のホームページに新しい運用追加予定が記載されていましたのでご紹介します.
       ( http://www.jarl.or.jp/Japanese/3_Fuji/uy.htm )

        ■ ふじ3号/FO−29 ■  
  
  ふじ3号(JAS−2) 運用予定      
  
 ☆☆デジトーカ運用を4月30日〜5月10日に運用☆☆ 

  *** 運用日程について ***
     
   4月12日 〜 4月27日     アナログ系運用
   ☆4月30日  〜  5月10日   デジトーカ運用(:FM音声メッセージ送信)
   5月10日 〜 5月17日     アナログ系運用
   5月17日 〜 5月24日     デジタル系1200bpsメールボックス運用
   5月24日 〜 5月31日     アナログ系運用

  *** 運用日程の変更について ***

 ☆4月28日からのデジトーカ運用は音声データのアップリンクが混信等の影響を受け
  てデータがUPしませんので予定を変更して,デジトーカ運用は4月30日から5月10日迄
   行うことと致します。

 ☆4月30日から5月6日に行うデジトーカ運用の音声送信メッセージは新データUP予定ですので
   お楽しみ下さい。

     ※運用日程の変更についても詳しく閲覧できるようになっていますので参照下さい.

        ■ ふじ2号/FO−20 ■      
            「ふじ2号」 現況                                                                                               
   JAS-1b/FO-20(ふじ2号)の不具合発生について
    JAS-1b(ふじ2号)のCWテレメトリ信号に,1997年10月12日12時
 (JST)の日本上空通過時,3桁の数字が繰り返されるはずが3個の長音の
  繰り返しとなっているという異常が発見されました。この不具合は次の通過時
  からは回復していましたが13日15時20分の通過時に再び観測されました。
  衛星のアナログ系中継モード動作は異常が無く,正常時のテレメトリ内容からは
  衛星の動作に異常は認められません。従って,直ちに衛星のミッションに影響す
  ることは無いと予想されますので,当面はアナログ系中継モードを継続します。
  衛星は既に打ち上げてから7年8ヶ月を経ておりますので,今後は監視を強化す
  る予定です。アマチュア各位のレポートをお待ちします.   
  
  以上  http://www.jarl.or.jp/Japanese/3_Fuji/fuji.htm
                                           
   =============   JAS-2 (ふじ3号)と現在までの情報   ===========
  
  A.電話によるふじ3号の運用情報
      社団法人日本アマチュア連盟によるサービス
           TEL .   03− 3942 − 1000
  B.アマチュア無線FAXサービス
      JARLによるふじ3号の軌道情報(オービットカレンダー)
         FAX No.  03− 3233 −0055
  C.WWWブラウザで情報を簡単に見れる人のためにJAS−2
     ふじ3号の衛星としての運用されるまでの名前)の概要、打ち上げ
     までの状況、運用中における状況を説明したホームページを紹介し
     ておきます.
     社団法人日本アマチュア無線連盟(JARL)のホームページ

          http://www.jarl.or.jp/Japanese/3_Fuji
 
     宇宙開発事業団(NASDA)ホームページ 
          http://www.nasda.go.jp/
         打上げ衛星 :地球観測プラットフォーム技術衛星(ADEOS) 
                       アマチュア衛星3号(JAS-2)
          http://yyy.tksc.nasda.go.jp/Home/Press/Press-j/jas-2_j.html        

